www.pogodaiklimat.ru

Погода и климат >> Архив погоды >> Мексика >> Тампико


ПОГОДА в Тампико

  • Прогноз погоды в Тампико
  • Монитор погоды в Тампико

АРХИВ ПОГОДЫ в Тампико

Время (UTC), дата Ветер
(напр.,м/с)
 
Видим.   Явления Облачность Т
(С)
Тd
(С)
f
(%)
Тe
(С)
Тes
(С)
Комфортность P
(гПа)
Po
(гПа)
Тmin
(С)
Tmax
(С)
R
(мм)
R24
(мм)
S
(см)
21 8.02 С 6 25 км 10/10 400 м
[Sc diur, vesp]
+17.6 +10.7 64 +17 +17 1026.8 1025.8
00 9.02 С 4 20 км {морось} 10/10 400 м
[Sc diur, vesp]
+14.4 +9.4 72 +13 +13 1027.8 1026.8 +14.2 +19.5 0.1
03 9.02 С 3 10 км 9/9 400 м
[Sc diur, vesp]
+13.8 +9.1 73 +13 +13 1029.7 1028.7
06 9.02 С 2 10 км слаб. морось 9/9 300 м
[Sc diur, vesp]
+13.8 +9.1 73 +13 +13 1030.2 1029.2 0.0
09 9.02 С 2 10 км слаб. морось 9/9 400 м
[Sc diur, vesp]
+13.4 +11.7 89 +13 +13 1028.8 1027.8 1
12 9.02 С 2 10 км слаб. морось 9/9 400 м
[Sc diur, vesp]
+12.2 +10.4 89 +11 +11 1027.3 1026.3 +11.8 +23.6 0.8
15 9.02 СЗ 2 15 км слаб. морось 10/10 400 м
[Sc diur, vesp]
+12.8 +11.8 94 +12 +12 1030.1 1029.1 0.8
18 9.02 С 3 22 км слаб. морось 10/10 400 м
[Sc diur, vesp]
+14.4 +12.7 90 +13 +13 1030.3 1029.3 +11.8 +14.5 0.0
03 10.02 штиль 0 10 км слаб. морось 10/10 400 м
[Sc diur, vesp]
+14.4 +12.7 90 +14 +14 1027.8 1026.8 0.4
06 10.02 штиль 0 10 км {морось, дождь} 9/9 300 м
[Sc diur, vesp]
+13.4 +11.7 89 +13 +13 1026.8 1025.8 0.4
09 10.02 СВ 1 10 км 9/9 400 м
[Sc diur, vesp]
+14.0 +10.9 82 +14 +14 1024.8 1023.8
12 10.02 СВ 1 10 км 9/9 400 м
[Sc diur, vesp]
+14.4 +11.3 82 +15 +15 1023.9 1022.9 +13.0 +15.0
15 10.02 н/о +11.9 1023.9 1022.9
18 10.02 н/о +13.7 1024.5 1023.5 +13.2
21 10.02 В 3 22 км 8/0 2000 м
[Ac und]
+23.2 +16.8 67 +28 +31 душно 1019.5 1018.5
00 11.02 В 3 20 км 3/0 2000 м
[Ac trans]
+19.6 +14.8 74 +22 +22 комфорт 1018.5 1017.5 +13.2 +23.8
03 11.02 В 1 10 км 8/5 400 м
[Cu med, cong Ac trans]
+18.0 +13.4 74 +19 +19 1019.5 1018.5
06 11.02 В 1 10 км 3/3 400 м
[Cu hum]
+17.6 +14.4 82 +19 +19 1018.8 1017.8 +23.8
09 11.02 СЗ 1 10 км 9/9 400 м
[Sc diur, vesp]
+17.2 +14.3 83 +18 +18 1017.7 1016.7
12 11.02 З 1 10 км 5/5 400 м
[Sc diur, vesp]
+17.4 +15.5 89 +18 +18 1016.5 1015.5 +16.6 +23.8
15 11.02 ЮЗ 1 22 км 8/0 2000 м
[Ac trans]
+18.8 +17.3 91 +21 +24 комфорт 1017.2 1016.2
18 11.02 ЮЗ 1 22 км 3/3 400 м
[Cu hum]
+25.2 +20.3 74 +31 +43 очень
душно
1015.4 1014.4 +16.6 +26.2
21 11.02 Ю 1 22 км 3/3 400 м
[Cu hum]
+26.8 +20.9 70 +34 +41 очень
душно
1011.5 1010.5
00 12.02 штиль 0 50 км ?/? +24.0 +18.7 72 +29 +29 душно 1010.0 1009.0 +16.6 +29.0
03 12.02 ЮЗ 2 10 км ясно +20.4 +18.0 86 +25 +25 комфорт 1011.6 1010.6
06 12.02 В 3 10 км ясно +20.0 +17.6 86 +23 +23 комфорт 1012.6 1011.6 +29.0
09 12.02 В 1 10 км ясно +19.4 +16.9 85 +22 +22 комфорт 1013.8 1012.8
12 12.02 В 1 10 км 8/8 400 м
[Sc diur, vesp]
+19.6 +18.1 91 +23 +23 комфорт 1015.8 1014.8 +19.0 +29.0
15 12.02 С 5 20 км 10/10 400 м
[Sc diur, vesp]
+21.0 +18.9 88 +26 +26 душно 1020.8 1019.8
18 12.02 С 7 24 км 10/4 480 м
[Sc diur, vesp Ac As]
+22.2 +16.4 70 +26 +27 душно 1021.7 1020.7 +19.0 +22.5
21 12.02 С 12 24 км 9/3 400 м
[Sc diur, vesp Ac As]
+21.2 +6.8 39 +22 +22 комфорт 1021.0 1020.0
00 13.02 С 11 22 км 9/3 400 м
[Sc diur, vesp Ac As]
+19.4 +7.5 46 +19 +19 1023.3 1022.3 +19.0 +22.8
03 13.02 С 11 10 км 8/3 400 м
[Sc diur, vesp Ac As]
+17.6 +8.3 54 +16 +16 1026.6 1025.6
06 13.02 С 6 10 км 6/0
[Ac trans]
+17.2 +8.6 57 +16 +16 1028.3 1027.3 +22.8
09 13.02 С 3 10 км 6/0
[Ac trans]
+16.4 +9.3 63 +16 +16 1027.2 1026.2
12 13.02 СВ 2 10 км 5/0
[Ac trans]
+15.0 +7.5 61 +15 +15 1027.3 1026.3 +14.2
15 13.02 СВ 1 20 км 3/0 2000 м
[Ac trans]
+17.0 +8.7 58 +18 +23 1028.1 1027.1
18 13.02 СЗ 1 24 км ясно +23.0 +11.4 48 +25 +42 комфорт 1026.1 1025.1 +14.2 +23.4
21 13.02 В 2 24 км ясно +24.2 +9.7 40 +25 +34 комфорт 1022.5 1021.5
00 14.02 В 4 24 км ясно +21.4 +12.6 57 +24 +24 комфорт 1020.9 1019.9 +14.2 +26.2
03 14.02 ЮВ 3 10 км ясно +18.0 +13.4 74 +18 +18 1022.0 1021.0
06 14.02 В 3 10 км 3/0
[Ci]
+16.0 +13.3 84 +16 +16 1021.0 1020.0 +26.2
09 14.02 ЮВ 2 10 км 3/0
[Ci]
+15.6 +14.0 90 +15 +15 1019.1 1018.1
12 14.02 З 1 10 км 1/0
[Ci]
+14.8 +13.5 92 +15 +15 1017.6 1016.6 +14.4 +26.2
15 14.02 Ю 2 24 км ясно +17.2 +14.6 85 +18 +22 1018.3 1017.3
18 14.02 Ю 1 24 км 4/1 400 м
[Cu hum Ci]
+25.4 +18.3 65 +30 +44 душно 1016.9 1015.9 +14.2 +26.0
21 14.02 ЮВ 5 24 км 4/1 400 м
[Cu hum Ci]
+28.2 +20.5 63 +35 +39 очень
душно
1013.4 1012.4
00 15.02 ЮВ 5 22 км 3/0
[Ci]
+24.0 +19.3 75 +29 +29 душно 1011.7 1010.7 +14.2 +29.0
03 15.02 ЮВ 3 10 км 3/0
[Ci]
+20.0 +16.9 82 +23 +23 комфорт 1014.1 1013.1
06 15.02 ЮВ 2 10 км 3/0
[Ci]
+19.4 +16.9 85 +22 +22 комфорт 1014.4 1013.4 +29.0
09 15.02 ЮВ 1 10 км 3/3 400 м
[Cu hum]
+18.8 +17.0 89 +21 +21 комфорт 1013.3 1012.3
12 15.02 штиль 0 10 км 3/3 400 м
[Cu med, cong]
+18.0 +17.7 98 +18 +18 1013.2 1012.2 +17.6
15 15.02 СВ 1 18 км 4/4 400 м
[Cu med, cong]
+19.4 +18.2 93 +23 +26 комфорт 1014.7 1013.7
18 15.02 ЮВ 2 22 км ясно +26.6 +21.2 72 +34 +48 очень
душно
1013.6 1012.6 +17.6 +27.5

 

Местоположение метеостанции Тампико (Мексика): широта 22.20 долгота -97.85 высота над уровнем моря 25 м.

В архиве по умолчанию представлена погода в Тампико за последнюю неделю. Архивные данные за месяц целиком и за предыдущие месяцы, начиная с января 2011 года, Вы можете получить, выбрав интересующий диапазон дат из раскрывающегося списка и нажав кнопку "Ввод!".


*Определитесь, кто Вы:
робот инопланетянин человек

Внимание! Время в таблицах - всемирное. Для получения местного времени необходимо прибавить поправку, которая равна -6 ч.

Смотрите также архив погоды в соседних городах и на ближайших метеорологических станциях:

Погода в Тамуине (Мексика) (96 км)
Погода в Маталапе (Мексика) (139 км)
Погода в Туспане (Мексика) (147 км)
Погода в Сото ла Марина (Мексика) (178 км)
Погода в Сьюдад-Виктории (Мексика) (215 км)
Погода в Рио-Верде (Мексика) (222 км)
Погода в Тулансинго (Мексика) (242 км)
Погода в Пачуке (Мексика) (248 км)
Погода в Халапе (Мексика) (311 км)
Погода в Сан-Луис-Потоси (Мексика) (314 км)

Пояснения к столбцам:

Ветер - указаны скорость ветра в м/с - средняя за 10 мин, порывы в срок и между сроками (в фигурных скобках) и направление, откуда дует ветер: С - северный, СВ - северо-восточный, В - восточный, ЮВ - юго-восточный, Ю - южный, ЮЗ - юго-западный, З - западный, СЗ - северо-западный.
Видимость - горизонтальная дальность видимости в метрах или километрах. При видимости от 1 до 10 км при отсутствии осадков обычно наблюдается дымка, при ухудшении видимости до 1 км и менее - туман. В сухую погоду видимость может ухудшаться дымом, пылью или мглою.
Явления - указаны атмосферные явления, наблюдавшиеся в срок или в последний час перед сроком; фигурными скобками обозначены явления, наблюдавшиеся между сроками (за 1-3 часа до срока); квадратными скобками обозначены град или гололедные отложения с указанием их диаметра в мм.
Облачность - указаны через наклонную черту общая и нижняя облачность в баллах и высота нижней границы облаков в метрах; квадратными скобками обозначены формы облаков: Ci - перистые, Cs - перисто-слоистые, Cc - перисто-кучевые, Ac - высококучевые, As - высокослоистые, Sc - слоисто-кучевые, Ns - слоисто-дождевые, Cu - кучевые, Cb - кучево-дождевые. Подробнее классификацию облаков см. в Атласе облаков (PDF).
T - Температура воздуха - температура, измеренная на высоте 2 м над землей.
Td - Температура точки росы - температура, при понижении до которой содержащийся в воздухе водяной пар достигнет насыщения.
f - Относительная влажность воздуха - влажноcть воздуха, измеренная на высоте 2 м над землей.
Te - Эффективная температура - температура, которую ощущает одетый по сезону человек в тени. Характеристика душности погоды. При расчете учитывается влияние влажности воздуха и скорости ветра на теплоощущения человека.
Tes - Эффективная температура на солнце - температура, которую ощущает человек, с поправкой на солнечный нагрев. Характеристика знойности погоды. Зависит от высоты солнца над горизонтом, облачности и скорости ветра. Ночью, в пасмурную погоду, а также при ветре 12 м/с и более поправка равна нулю.
P - Атмосферное давление - приведенное к уровню моря атмосферное давление.
Po - Атмосферное давление - измеренное на уровне метеостанции атмосферное давление.
Tmin - Минимальная температура - минимум температуры воздуха на высоте 2 м над землей.
Tmax - Максимальная температура - максимум температуры воздуха на высоте 2 м над землей.
R - Количество осадков - Количество выпавших осадков за период времени, мм. При наведении курсора мыши на число - период времени, за который выпало указанное количество осадков.
R24 - Количество осадков - Количество выпавших осадков за 24 часа, мм.
S - Снежный покров - Высота снежного покрова, см. При наведении курсора мыши на число - состояние снежного покрова и степень покрытия местности в баллах.